Location: Alphen aan den Rijn
(52.1277°N, 4.6689°E)
Time: 17:55:09
(UTC+02:00)

Envisat - Visible Passes

Search period start: 24 September 2017 00:00
Search period end: 04 October 2017 00:00
Orbit: 764 x 766 km, 98.2° (Epoch: 24 September)

Date Brightness Start Highest point End Pass type
(mag) Time Alt. Az. Time Alt. Az. Time Alt. Az.
24 Sep 3.7 20:18:52 10° SE 20:23:26 35° ENE 20:28:02 10° N visible
24 Sep 4.1 21:57:36 10° SSW 22:02:24 41° W 22:07:14 10° NNW visible
25 Sep 3.0 21:20:28 10° SSE 21:25:33 81° WSW 21:30:41 10° NNW visible
25 Sep 5.7 23:02:54 10° WSW 23:05:25 14° W 23:07:57 10° NW visible
26 Sep 3.1 20:43:58 10° SE 20:48:54 54° ENE 20:53:52 10° N visible
26 Sep 4.9 22:23:59 10° SSW 22:28:14 26° W 22:32:30 10° NW visible
27 Sep 3.9 20:08:04 10° ESE 20:12:25 30° ENE 20:16:48 10° N visible
27 Sep 3.8 21:46:38 12° S 21:51:14 50° W 21:56:13 10° NNW visible
28 Sep 2.9 21:09:39 12° SSE 21:14:27 84° ENE 21:19:34 10° NNW visible
28 Sep 5.5 22:50:56 10° SW 22:54:09 17° W 22:57:23 10° NW visible
29 Sep 3.3 20:33:02 10° SE 20:37:50 45° ENE 20:42:41 10° N visible
29 Sep 4.6 22:12:53 12° SSW 22:17:01 32° W 22:21:34 10° NNW visible
30 Sep 4.1 19:57:20 10° ESE 20:01:25 25° ENE 20:05:32 10° N visible
30 Sep 3.4 21:35:55 15° S 21:40:06 62° WSW 21:45:10 10° NNW visible
01 Oct 2.9 20:58:56 14° SSE 21:03:22 70° ENE 21:08:27 10° N visible
01 Oct 5.3 22:39:11 10° SW 22:42:54 20° W 22:46:39 10° NW visible
02 Oct 3.6 20:22:10 10° SE 20:26:49 38° ENE 20:31:29 10° N visible
02 Oct 4.2 22:02:11 16° SSW 22:05:50 38° W 22:10:36 10° NNW visible
03 Oct 4.3 19:46:40 10° ESE 19:50:26 22° ENE 19:54:14 10° N visible
03 Oct 3.1 21:25:13 18° S 21:28:58 75° WSW 21:34:05 10° NNW visible
03 Oct 5.7 23:06:46 10° WSW 23:08:54 12° W 23:11:02 10° WNW visible
